DW8548 Weather Reports


time (UTC)temp
C
wind
direction
speed
KPH
gust
KPH
rain 1hr
cm
rain 24hr
cm
rain mn
cm
humidity
%
barometer
mb
20230208174304 20 162 3.2 8.0 0.00 0.00 0.00 81 1011.4
20230208173805 19 156 4.8 9.7 0.00 0.00 0.00 82 1011.4
20230208173313 19 159 3.2 8.0 0.00 0.00 0.00 83 1011.4
20230208173102 19 166 3.2 8.0 0.00 0.00 0.00 83 1011.4
20230208172804 19 164 1.6 8.0 0.00 0.00 0.00 84 1011.4
20230208171600 19 155 1.6 6.4 0.00 0.00 0.00 83 1011.3
20230208170104 20 151 1.6 9.7 0.00 0.00 0.00 82 1011.5
20230208164603 20 142 1.6 9.7 0.00 0.00 0.00 83 1011.5
20230208163804 20 159 1.6 4.8 0.00 0.00 0.00 83 1011.5
20230208163304 20 149 3.2 4.8 0.00 0.00 0.00 83 1011.5
20230208163100 20 162 1.6 6.4 0.00 0.00 0.00 82 1011.5
20230208162804 20 174 1.6 4.8 0.00 0.00 0.00 83 1011.5
20230208162305 20 155 1.6 3.2 0.00 0.00 0.00 82 1011.5
20230208161805 20 148 1.6 4.8 0.00 0.00 0.00 82 1011.6
20230208161601 20 138 0.0 3.2 0.00 0.00 0.00 82 1011.6
20230208161304 20 143 0.0 3.2 0.00 0.00 0.00 82 1011.7
20230208160804 20 149 1.6 3.2 0.00 0.00 0.00 82 1011.7
20230208160304 20 152 1.6 3.2 0.00 0.00 0.00 82 1011.8
20230208160103 20 158 0.0 3.2 0.00 0.00 0.00 81 1011.8
20230208155804 21 153 0.0 3.2 0.00 0.00 0.00 82 1011.9
20230208154556 21 0 0.0 1.6 0.00 0.00 0.00 81 1011.9
20230208153102 21 0 0.0 3.2 0.00 0.00 0.00 80 1011.9
20230208151604 21 140 1.6 4.8 0.00 0.00 0.00 79 1011.9
20230208150107 21 128 1.6 8.0 0.00 0.00 0.00 79 1012.0
20230208144559 22 159 1.6 9.7 0.00 0.00 0.00 78 1012.1
20230208143103 22 146 4.8 12.9 0.00 0.00 0.00 77 1012.2
20230208142804 22 180 4.8 12.9 0.00 0.00 0.00 78 1012.3
20230208142305 22 191 3.2 12.9 0.00 0.00 0.00 78 1012.3
20230208141804 22 181 6.4 11.3 0.00 0.00 0.00 78 1012.4
20230208141558 22 148 1.6 8.0 0.00 0.00 0.00 78 1012.2
20230208141304 22 180 3.2 8.0 0.00 0.00 0.00 78 1012.3
20230208140804 22 176 3.2 11.3 0.00 0.00 0.00 77 1012.4
20230208140304 22 175 4.8 9.7 0.00 0.00 0.00 77 1012.3
20230208140106 22 176 4.8 12.9 0.00 0.00 0.00 77 1012.3
20230208135805 22 182 8.0 12.9 0.00 0.00 0.00 77 1012.3
20230208135306 22 182 4.8 12.9 0.00 0.00 0.00 78 1012.4
20230208134805 22 161 8.0 16.1 0.00 0.00 0.00 78 1012.4
20230208134559 22 221 6.4 14.5 0.00 0.00 0.00 78 1012.3
20230208134304 22 182 8.0 11.3 0.00 0.00 0.00 78 1012.4
20230208133102 22 196 4.8 14.5 0.00 0.00 0.00 78 1012.5
20230208131603 22 173 6.4 16.1 0.00 0.00 0.00 78 1012.4
20230208130102 22 201 4.8 12.9 0.00 0.00 0.00 78 1012.4
20230208125804 22 197 4.8 11.3 0.00 0.00 0.00 80 1012.5
20230208125306 22 190 6.4 12.9 0.00 0.00 0.00 80 1012.4
20230208124806 22 164 4.8 11.3 0.00 0.00 0.00 80 1012.3
20230208124600 22 190 4.8 17.7 0.00 0.00 0.00 80 1012.2
20230208124305 22 184 8.0 12.9 0.00 0.00 0.00 80 1012.3
20230208123807 22 172 8.0 19.3 0.00 0.00 0.00 79 1012.2
20230208123308 22 196 6.4 14.5 0.00 0.00 0.00 79 1012.2
20230208123104 22 175 4.8 17.7 0.00 0.00 0.00 79 1012.2
20230208122808 22 179 8.0 19.3 0.00 0.00 0.00 79 1012.2
20230208122306 22 183 8.0 16.1 0.00 0.00 0.00 78 1012.2
20230208121806 22 182 4.8 12.9 0.00 0.00 0.00 78 1012.1
20230208121625 22 174 6.4 16.1 0.00 0.00 0.00 78 1012.0
20230208120806 22 187 8.0 14.5 0.00 0.00 0.00 78 1012.1
20230208120305 22 191 9.7 19.3 0.00 0.00 0.00 78 1012.1
20230208120103 22 190 8.0 25.7 0.00 0.00 0.00 77 1012.1
20230208115806 22 191 11.3 25.7 0.00 0.00 0.00 77 1012.1
20230208115305 22 188 11.3 22.5 0.00 0.00 0.00 76 1012.1
20230208114805 22 169 9.7 24.1 0.00 0.00 0.00 76 1012.1
20230208114600 22 186 11.3 27.4 0.00 0.00 0.00 75 1012.1
20230208114305 22 190 9.7 27.4 0.00 0.00 0.00 76 1012.1
20230208113806 22 196 8.0 19.3 0.00 0.00 0.00 76 1012.0
20230208113306 22 178 9.7 16.1 0.00 0.00 0.00 76 1012.0
20230208113100 22 159 8.0 24.1 0.00 0.00 0.00 76 1012.0
20230208112805 22 198 8.0 20.9 0.00 0.00 0.00 76 1012.0
20230208112306 22 188 12.9 24.1 0.00 0.00 0.00 76 1012.0
20230208111805 22 185 11.3 19.3 0.00 0.00 0.00 76 1012.1
20230208111601 22 177 8.0 22.5 0.00 0.00 0.00 75 1012.0
20230208111306 22 187 8.0 19.3 0.00 0.00 0.00 75 1012.1
20230208110806 22 177 11.3 22.5 0.00 0.00 0.00 75 1012.0
20230208110305 22 189 11.3 20.9 0.00 0.00 0.00 75 1012.0
20230208110111 22 165 11.3 22.5 0.00 0.00 0.00 74 1011.9
20230208105806 22 203 12.9 20.9 0.00 0.00 0.00 75 1011.9
20230208105307 22 186 9.7 22.5 0.00 0.00 0.00 75 1011.8
20230208104806 22 187 11.3 22.5 0.00 0.00 0.00 75 1011.9
20230208104558 22 154 9.7 24.1 0.00 0.00 0.00 74 1011.9
20230208104305 22 205 9.7 20.9 0.00 0.00 0.00 74 1012.0
20230208103806 22 198 11.3 24.1 0.00 0.00 0.00 74 1011.9
20230208103306 22 195 11.3 20.9 0.00 0.00 0.00 74 1011.9
20230208103101 22 177 11.3 22.5 0.00 0.00 0.00 73 1011.8
20230208102806 22 194 11.3 22.5 0.00 0.00 0.00 73 1011.8
20230208102306 23 183 9.7 19.3 0.00 0.00 0.00 74 1011.8
20230208101806 23 203 11.3 22.5 0.00 0.00 0.00 74 1011.7
20230208101605 22 192 8.0 24.1 0.00 0.00 0.00 74 1011.7
20230208101306 23 194 9.7 22.5 0.00 0.00 0.00 74 1011.6
20230208100806 23 183 11.3 22.5 0.00 0.00 0.00 74 1011.5
20230208100306 23 204 11.3 22.5 0.00 0.00 0.00 72 1011.6
20230208100105 23 153 11.3 22.5 0.00 0.00 0.00 72 1011.5
20230208095306 23 195 12.9 20.9 0.00 0.00 0.00 72 1011.4
20230208094806 23 191 12.9 32.2 0.00 0.00 0.00 71 1011.3
20230208094605 23 136 9.7 27.4 0.00 0.00 0.00 71 1011.1
20230208094305 23 191 11.3 27.4 0.00 0.00 0.00 72 1011.3
20230208093807 23 181 9.7 19.3 0.00 0.00 0.00 71 1011.1
20230208093322 23 188 11.3 20.9 0.00 0.00 0.00 71 1011.2
20230208093103 23 201 11.3 25.7 0.00 0.00 0.00 70 1011.3
20230208092805 23 193 12.9 24.1 0.00 0.00 0.00 69 1011.4
20230208092306 23 198 11.3 24.1 0.00 0.00 0.00 69 1011.3
20230208091806 23 178 11.3 22.5 0.00 0.00 0.00 69 1011.3
20230208091618 23 206 11.3 25.7 0.00 0.00 0.00 68 1011.3
20230208091306 23 193 12.9 24.1 0.00 0.00 0.00 68 1011.4
20230208090805 24 186 11.3 20.9 0.00 0.00 0.00 67 1011.4
20230208090306 24 197 11.3 19.3 0.00 0.00 0.00 68 1011.4
20230208090114 23 187 11.3 25.7 0.00 0.00 0.00 67 1011.3
20230208085805 24 200 11.3 24.1 0.00 0.00 0.00 68 1011.3
20230208085306 24 196 11.3 19.3 0.00 0.00 0.00 68 1011.3
20230208084806 24 175 12.9 24.1 0.00 0.00 0.00 67 1011.4
20230208084558 24 190 12.9 29.0 0.00 0.00 0.00 66 1011.4
20230208084306 24 187 14.5 29.0 0.00 0.00 0.00 65 1011.4
20230208083806 25 205 14.5 24.1 0.00 0.00 0.00 66 1011.3
20230208083307 25 201 12.9 22.5 0.00 0.00 0.00 64 1011.2
20230208083100 24 181 11.3 32.2 0.00 0.00 0.00 64 1011.2
20230208082806 25 194 9.7 20.9 0.00 0.00 0.00 65 1011.3
20230208082306 24 201 14.5 32.2 0.00 0.00 0.00 64 1011.3
20230208081805 25 196 14.5 32.2 0.00 0.00 0.00 64 1011.2
20230208081557 25 236 14.5 25.7 0.00 0.00 0.00 63 1011.2
20230208081306 25 200 14.5 25.7 0.00 0.00 0.00 62 1011.2
20230208080805 25 225 9.7 22.5 0.00 0.00 0.00 65 1011.2
20230208080307 25 197 14.5 22.5 0.00 0.00 0.00 64 1011.3
20230208080104 25 188 9.7 25.7 0.00 0.00 0.00 65 1011.2
20230208075806 25 220 14.5 25.7 0.00 0.00 0.00 64 1011.3
20230208075307 25 230 14.5 22.5 0.00 0.00 0.00 64 1011.3
20230208074806 25 207 11.3 25.7 0.00 0.00 0.00 63 1011.3
20230208074559 25 227 11.3 27.4 0.00 0.00 0.00 62 1011.1
20230208074306 25 196 11.3 25.7 0.00 0.00 0.00 66 1011.1
20230208073806 25 196 14.5 27.4 0.00 0.00 0.00 64 1011.2
20230208073307 25 211 14.5 25.7 0.00 0.00 0.00 62 1011.2
20230208073102 25 245 12.9 29.0 0.00 0.00 0.00 61 1011.1
20230208072805 25 197 14.5 27.4 0.00 0.00 0.00 64 1011.2
20230208072306 25 223 14.5 20.9 0.00 0.00 0.00 61 1011.2
20230208071805 26 208 9.7 27.4 0.00 0.00 0.00 62 1011.1
20230208071608 25 223 11.3 27.4 0.00 0.00 0.00 63 1011.1
20230208071305 25 213 12.9 25.7 0.00 0.00 0.00 62 1011.2
20230208070806 25 225 14.5 27.4 0.00 0.00 0.00 60 1011.2
20230208070307 25 220 12.9 24.1 0.00 0.00 0.00 60 1011.1
20230208070058 25 189 12.9 22.5 0.00 0.00 0.00 60 1011.0
20230208065806 26 235 11.3 20.9 0.00 0.00 0.00 60 1011.0
20230208065305 26 231 11.3 20.9 0.00 0.00 0.00 59 1011.1
20230208064806 26 210 11.3 22.5 0.00 0.00 0.00 60 1011.1
20230208064558 25 256 11.3 25.7 0.00 0.00 0.00 59 1011.0
20230208064305 25 205 9.7 20.9 0.00 0.00 0.00 63 1011.1
20230208063806 25 206 14.5 25.7 0.00 0.00 0.00 61 1011.1
20230208063305 25 207 14.5 27.4 0.00 0.00 0.00 60 1011.1
20230208063059 25 220 14.5 27.4 0.00 0.00 0.00 59 1011.1
20230208062805 25 214 14.5 24.1 0.00 0.00 0.00 60 1011.2
20230208062306 25 215 14.5 24.1 0.00 0.00 0.00 60 1011.2
20230208061806 25 214 12.9 29.0 0.00 0.00 0.00 60 1011.2
20230208061559 25 246 12.9 22.5 0.00 0.00 0.00 61 1011.1
20230208061305 25 202 12.9 22.5 0.00 0.00 0.00 61 1011.2
20230208060806 25 201 12.9 20.9 0.00 0.00 0.00 61 1011.2
20230208060306 25 207 14.5 27.4 0.00 0.00 0.00 60 1011.3
20230208060111 25 171 12.9 29.0 0.00 0.00 0.00 59 1011.3
20230208055806 25 202 11.3 24.1 0.00 0.00 0.00 61 1011.4
20230208055305 25 233 12.9 29.0 0.00 0.00 0.00 60 1011.5
20230208054806 26 222 12.9 29.0 0.00 0.00 0.00 60 1011.5
20230208054604 25 215 11.3 22.5 0.00 0.00 0.00 60 1011.5
20230208054305 25 215 12.9 22.5 0.00 0.00 0.00 61 1011.4
20230208053806 26 215 11.3 20.9 0.00 0.00 0.00 61 1011.6
20230208053307 26 226 11.3 20.9 0.00 0.00 0.00 60 1011.6
20230208053104 25 202 11.3 24.1 0.00 0.00 0.00 60 1011.5
20230208052805 25 221 11.3 22.5 0.00 0.00 0.00 60 1011.6
20230208052306 26 241 11.3 22.5 0.00 0.00 0.00 60 1011.6
20230208051805 26 222 14.5 24.1 0.00 0.00 0.00 60 1011.7
20230208051601 25 219 9.7 24.1 0.00 0.00 0.00 61 1011.7
20230208051305 25 221 12.9 24.1 0.00 0.00 0.00 61 1011.8
20230208050813 26 223 11.3 22.5 0.00 0.00 0.00 60 1011.8
20230208050305 26 201 11.3 20.9 0.00 0.00 0.00 60 1011.8
20230208050129 26 193 6.4 24.1 0.00 0.00 0.00 59 1011.6
20230208045806 26 211 9.7 22.5 0.00 0.00 0.00 61 1011.8
20230208045306 25 229 11.3 24.1 0.00 0.00 0.00 60 1011.8
20230208044805 26 224 14.5 27.4 0.00 0.00 0.00 58 1011.9
20230208044622 25 216 9.7 22.5 0.00 0.00 0.00 59 1011.8
20230208044305 26 221 11.3 22.5 0.00 0.00 0.00 60 1011.9
20230208043805 26 237 9.7 20.9 0.00 0.00 0.00 60 1012.0
20230208043306 26 217 9.7 19.3 0.00 0.00 0.00 59 1012.0
20230208043057 26 227 9.7 24.1 0.00 0.00 0.00 58 1011.9
20230208042808 26 214 9.7 19.3 0.00 0.00 0.00 60 1012.0
20230208042306 25 221 14.5 24.1 0.00 0.00 0.00 61 1012.0
20230208041805 26 213 11.3 20.9 0.00 0.00 0.00 58 1012.0
20230208041614 26 213 6.4 20.9 0.00 0.00 0.00 58 1012.0
20230208041306 26 216 4.8 19.3 0.00 0.00 0.00 61 1012.1
20230208040806 25 234 11.3 20.9 0.00 0.00 0.00 60 1012.1
20230208040306 26 225 9.7 19.3 0.00 0.00 0.00 59 1012.1
20230208040104 25 227 9.7 22.5 0.00 0.00 0.00 59 1012.0
20230208035805 26 223 11.3 20.9 0.00 0.00 0.00 59 1012.2
20230208035306 26 228 9.7 19.3 0.00 0.00 0.00 58 1012.1
20230208034805 26 209 8.0 20.9 0.00 0.00 0.00 57 1012.2
20230208034610 26 221 9.7 20.9 0.00 0.00 0.00 55 1012.1
20230208034305 26 216 11.3 20.9 0.00 0.00 0.00 55 1012.3
20230208033805 26 204 12.9 19.3 0.00 0.00 0.00 55 1012.3
20230208033305 26 235 9.7 22.5 0.00 0.00 0.00 56 1012.4
20230208033101 25 204 9.7 19.3 0.00 0.00 0.00 55 1012.3
20230208032805 26 187 11.3 19.3 0.00 0.00 0.00 56 1012.5
20230208032306 26 208 9.7 19.3 0.00 0.00 0.00 57 1012.5
20230208031806 26 190 11.3 19.3 0.00 0.00 0.00 57 1012.5
20230208031600 25 202 9.7 17.7 0.00 0.00 0.00 56 1012.5
20230208031306 26 214 11.3 19.3 0.00 0.00 0.00 56 1012.6
20230208030806 26 230 8.0 14.5 0.00 0.00 0.00 56 1012.5
20230208030305 26 192 9.7 16.1 0.00 0.00 0.00 56 1012.5
20230208030100 26 159 8.0 16.1 0.00 0.00 0.00 55 1012.4
20230208025805 26 202 8.0 14.5 0.00 0.00 0.00 57 1012.6
20230208025306 26 230 9.7 16.1 0.00 0.00 0.00 55 1012.6
20230208024806 26 226 8.0 14.5 0.00 0.00 0.00 54 1012.5
20230208024640 26 192 8.0 16.1 0.00 0.00 0.00 53 1012.5
20230208024306 27 216 8.0 14.5 0.00 0.00 0.00 55 1012.5
20230208023806 26 235 4.8 11.3 0.00 0.00 0.00 54 1012.5
20230208023307 27 190 8.0 12.9 0.00 0.00 0.00 52 1012.6
20230208023058 27 163 4.8 17.7 0.00 0.00 0.00 50 1012.5
20230208022806 27 169 6.4 19.3 0.00 0.00 0.00 48 1012.6
20230208021559 26 163 3.2 12.9 0.00 0.00 0.00 47 1012.6
20230208020111 26 181 3.2 12.9 0.00 0.00 0.00 50 1012.6
20230208014601 26 166 3.2 11.3 0.00 0.00 0.00 51 1012.7
20230208014305 26 163 4.8 11.3 0.00 0.00 0.00 52 1012.7
20230208013805 26 97 3.2 8.0 0.00 0.00 0.00 54 1012.8
20230208013305 25 164 3.2 11.3 0.00 0.00 0.00 54 1012.7
20230208013103 25 169 4.8 11.3 0.00 0.00 0.00 54 1012.7
20230208012805 25 154 3.2 4.8 0.00 0.00 0.00 53 1012.7
20230208012306 25 136 4.8 11.3 0.00 0.00 0.00 54 1012.8
20230208011806 25 149 3.2 9.7 0.00 0.00 0.00 54 1012.9
20230208011559 25 0 3.2 11.3 0.00 0.00 0.00 55 1012.9
20230208011305 25 82 4.8 9.7 0.00 0.00 0.00 54 1012.9
20230208010805 25 93 6.4 11.3 0.00 0.00 0.00 55 1013.0
20230208010305 25 141 3.2 4.8 0.00 0.00 0.00 56 1012.9
20230208010101 24 62 3.2 17.7 0.00 0.00 0.00 56 1013.0
20230208005307 25 153 1.6 9.7 0.00 0.00 0.00 57 1013.0
20230208004806 24 83 1.6 4.8 0.00 0.00 0.00 58 1013.0
20230208004558 23 137 3.2 12.9 0.00 0.00 0.00 58 1012.9
20230208004305 23 64 4.8 12.9 0.00 0.00 0.00 58 1013.0
20230208003805 23 51 3.2 9.7 0.00 0.00 0.00 60 1013.0
20230208003305 23 126 4.8 12.9 0.00 0.00 0.00 60 1013.0
20230208003110 23 79 6.4 16.1 0.00 0.00 0.00 59 1013.0
20230208002806 23 80 6.4 16.1 0.00 0.00 0.00 60 1013.0
20230208002306 23 95 3.2 4.8 0.00 0.00 0.00 61 1013.0
20230208001806 23 61 4.8 12.9 0.00 0.00 0.00 62 1013.0
20230208001559 22 76 3.2 14.5 0.00 0.00 0.00 62 1013.0
20230208001306 22 100 3.2 12.9 0.00 0.00 0.00 63 1013.0
20230208000805 22 149 4.8 14.5 0.00 0.00 0.00 62 1012.9
20230208000305 22 71 3.2 9.7 0.00 0.00 0.00 65 1012.8
20230208000103 21 182 1.6 14.5 0.00 0.00 0.00 64 1012.8
20230207235805 22 109 3.2 14.5 0.00 0.00 0.00 64 1012.9
20230207235306 21 129 4.8 11.3 0.00 0.00 0.00 65 1012.9
20230207234806 21 86 3.2 12.9 0.00 0.00 0.00 66 1012.9
20230207234559 21 53 3.2 12.9 0.00 0.00 0.00 65 1012.8
20230207234305 21 136 4.8 12.9 0.00 0.00 0.00 65 1012.9
20230207233805 21 127 1.6 8.0 0.00 0.00 0.00 67 1012.9
20230207233306 21 125 3.2 9.7 0.00 0.00 0.00 67 1012.9
20230207233059 20 130 3.2 8.0 0.00 0.00 0.00 67 1012.8
20230207232805 21 141 3.2 4.8 0.00 0.00 0.00 67 1012.9
20230207232306 21 151 1.6 4.8 0.00 0.00 0.00 68 1013.0
20230207231805 20 155 0.0 3.2 0.00 0.00 0.00 69 1013.0
20230207231603 20 0 0.0 3.2 0.00 0.00 0.00 68 1013.0
20230207231305 20 94 1.6 3.2 0.00 0.00 0.00 69 1013.0
20230207230805 20 82 1.6 8.0 0.00 0.00 0.00 70 1013.0
20230207230306 20 126 0.0 8.0 0.00 0.00 0.00 71 1013.0
20230207230107 19 0 0.0 6.4 0.00 0.00 0.00 71 1012.9
20230207225805 19 160 1.6 4.8 0.00 0.00 0.00 72 1012.9
20230207225306 19 159 1.6 4.8 0.00 0.00 0.00 73 1012.9
20230207224806 18 163 3.2 8.0 0.00 0.00 0.00 74 1012.8
20230207224555 18 142 0.0 4.8 0.00 0.00 0.00 74 1012.7
20230207224305 18 146 1.6 4.8 0.00 0.00 0.00 75 1012.7
20230207223806 18 155 1.6 3.2 0.00 0.00 0.00 76 1012.7
20230207223305 17 163 0.0 3.2 0.00 0.00 0.00 78 1012.7
20230207223108 17 0 0.0 3.2 0.00 0.00 0.00 78 1012.6
20230207222805 17 163 1.6 3.2 0.00 0.00 0.00 79 1012.7
20230207222306 17 163 1.6 3.2 0.00 0.00 0.00 79 1012.7
20230207221805 17 163 1.6 3.2 0.00 0.00 0.00 79 1012.6
20230207221605 17 163 0.0 3.2 0.00 0.00 0.00 78 1012.5
20230207221305 17 163 1.6 3.2 0.00 0.00 0.00 79 1012.6
20230207220805 17 163 1.6 3.2 0.00 0.00 0.00 79 1012.5
20230207220306 17 163 1.6 3.2 0.00 0.00 0.00 80 1012.5
20230207220102 17 163 0.0 3.2 0.00 0.00 0.00 79 1012.4
20230207215306 17 163 0.0 1.6 0.00 0.00 0.00 79 1012.4
20230207214805 17 163 0.0 3.2 0.00 0.00 0.00 80 1012.3
20230207214557 16 163 0.0 3.2 0.00 0.00 0.00 79 1012.2
20230207214306 17 163 0.0 3.2 0.00 0.00 0.00 80 1012.3
20230207213806 17 163 0.0 1.6 0.00 0.00 0.00 80 1012.2
20230207213306 17 163 0.0 1.6 0.00 0.00 0.00 79 1012.1
20230207213108 16 0 0.0 1.6 0.00 0.00 0.00 79 1012.0
20230207212805 17 163 0.0 1.6 0.00 0.00 0.00 79 1012.0
20230207212306 17 163 0.0 1.6 0.00 0.00 0.00 78 1012.0
20230207211806 17 163 0.0 3.2 0.00 0.00 0.00 78 1012.0
20230207211600 17 0 0.0 3.2 0.00 0.00 0.00 78 1012.0
20230207211305 17 163 0.0 1.6 0.00 0.00 0.00 78 1011.9
20230207210805 17 163 0.0 3.2 0.00 0.00 0.00 78 1011.9
20230207210306 17 163 1.6 3.2 0.00 0.00 0.00 77 1011.7
20230207210106 17 163 0.0 1.6 0.00 0.00 0.00 76 1011.7
20230207205805 17 163 0.0 0.0 0.00 0.00 0.00 76 1011.7
20230207205306 17 163 0.0 1.6 0.00 0.00 0.00 76 1011.7
20230207204805 17 163 0.0 3.2 0.00 0.00 0.00 76 1011.6
20230207204559 17 0 0.0 3.2 0.00 0.00 0.00 76 1011.6
20230207204306 17 163 1.6 3.2 0.00 0.00 0.00 76 1011.6
20230207203806 18 163 0.0 1.6 0.00 0.00 0.00 75 1011.6
20230207203307 18 163 0.0 3.2 0.00 0.00 0.00 74 1011.5
20230207203118 18 163 0.0 3.2 0.00 0.00 0.00 74 1011.5
20230207202806 18 163 1.6 3.2 0.00 0.00 0.00 74 1011.4
20230207202306 18 163 0.0 3.2 0.00 0.00 0.00 74 1011.3
20230207201805 18 163 0.0 3.2 0.00 0.00 0.00 73 1011.3
20230207201558 18 0 1.6 4.8 0.00 0.00 0.00 73 1011.2
20230207201306 18 152 1.6 4.8 0.00 0.00 0.00 73 1011.3
20230207200805 18 150 1.6 4.8 0.00 0.00 0.00 73 1011.3
20230207200305 18 139 1.6 3.2 0.00 0.00 0.00 73 1011.3
20230207200102 18 164 0.0 4.8 0.00 0.00 0.00 72 1011.2
20230207195805 18 164 1.6 4.8 0.00 0.00 0.00 72 1011.3
20230207195306 19 152 1.6 4.8 0.00 0.00 0.00 71 1011.2
20230207194805 19 148 1.6 3.2 0.00 0.00 0.00 71 1011.2
20230207194557 19 148 0.0 6.4 0.00 0.00 0.00 70 1011.1
20230207194305 19 138 1.6 4.8 0.00 0.00 0.00 71 1011.1
20230207193805 19 159 1.6 4.8 0.00 0.00 0.00 71 1011.1
20230207193305 19 156 1.6 4.8 0.00 0.00 0.00 71 1011.2
20230207193100 19 153 1.6 6.4 0.00 0.00 0.00 70 1011.2
20230207192805 20 152 1.6 3.2 0.00 0.00 0.00 70 1011.3
20230207192306 20 142 1.6 4.8 0.00 0.00 0.00 69 1011.3
20230207191805 20 154 4.8 11.3 0.00 0.00 0.00 69 1011.3
20230207191559 20 136 1.6 6.4 0.00 0.00 0.00 69 1011.2
20230207191305 20 145 1.6 4.8 0.00 0.00 0.00 69 1011.2
20230207190805 20 157 1.6 4.8 0.00 0.00 0.00 69 1011.2
20230207190312 20 153 1.6 8.0 0.00 0.00 0.00 69 1011.3
20230207190100 20 0 1.6 8.0 0.00 0.00 0.00 69 1011.2
20230207185805 20 149 3.2 4.8 0.00 0.00 0.00 69 1011.3
20230207185306 20 161 3.2 4.8 0.00 0.00 0.00 69 1011.3
20230207184805 20 144 3.2 4.8 0.00 0.00 0.00 69 1011.3
20230207184600 20 140 0.0 9.7 0.00 0.00 0.00 68 1011.3
20230207184306 20 143 3.2 4.8 0.00 0.00 0.00 68 1011.2
20230207183806 20 153 3.2 9.7 0.00 0.00 0.00 68 1011.3
20230207183306 20 157 1.6 4.8 0.00 0.00 0.00 68 1011.3
20230207183059 20 0 1.6 6.4 0.00 0.00 0.00 68 1011.3
20230207182805 20 156 1.6 4.8 0.00 0.00 0.00 68 1011.4
20230207182307 20 154 1.6 4.8 0.00 0.00 0.00 68 1011.3
20230207181806 20 144 3.2 4.8 0.00 0.00 0.00 68 1011.3
20230207181608 20 156 1.6 9.7 0.00 0.00 0.00 68 1011.3
20230207181305 20 147 3.2 9.7 0.00 0.00 0.00 68 1011.3
20230207180805 20 120 1.6 4.8 0.00 0.00 0.00 68 1011.4
20230207180305 20 143 1.6 4.8 0.00 0.00 0.00 68 1011.4
20230207180120 20 136 1.6 6.4 0.00 0.00 0.00 68 1011.4
20230207175805 20 153 1.6 3.2 0.00 0.00 0.00 68 1011.4
20230207175305 20 153 3.2 4.8 0.00 0.00 0.00 68 1011.4
20230207174806 20 150 3.2 8.0 0.00 0.00 0.00 68 1011.5
20230207174621 20 0 1.6 6.4 0.00 0.00 0.00 67 1011.4